Location: Freemans Gardens
(41.6414°N, 83.6077°W)
Time: 01:48:35
(UTC+00:00)

Cosmos 44 Rocket - Visible Passes

Search period start: 27 February 2021 00:00
Search period end: 09 March 2021 00:00
Orbit: 637 x 753 km, 65.1° (Epoch: 26 February)

Date Brightness Start Highest point End Pass type
(mag) Time Alt. Az. Time Alt. Az. Time Alt. Az.
27 Feb 4.0 00:53:58 10° NNW 00:58:51 38° NE 00:59:47 35° ENE visible
27 Feb 5.4 02:35:41 10° NW 02:38:32 26° WNW 02:38:32 26° WNW visible
27 Feb 4.9 23:54:50 10° N 23:58:36 20° NE 00:02:21 10° E visible
28 Feb 3.4 01:35:31 10° NW 01:40:46 78° WSW 01:41:07 74° SSW visible
01 Mar 3.8 00:35:51 10° NNW 00:40:55 47° NE 00:43:50 23° ESE visible
01 Mar 5.2 02:17:58 10° WNW 02:22:11 25° WSW 02:22:36 25° WSW visible
02 Mar 3.8 01:17:33 10° NW 01:22:43 61° WSW 01:25:29 27° S visible
03 Mar 3.5 00:17:46 10° NNW 00:22:58 59° NE 00:28:04 10° SE visible
03 Mar 5.8 02:00:22 10° WNW 02:04:03 20° WSW 02:07:22 11° SSW visible
04 Mar 4.4 00:59:39 10° NW 01:04:39 47° WSW 01:09:34 10° S visible
04 Mar 3.4 23:59:43 10° NNW 00:04:59 75° NE 00:10:09 10° SE visible
05 Mar 6.2 01:43:00 10° WNW 01:45:52 15° WSW 01:48:43 10° SW visible
06 Mar 5.0 00:41:48 10° NW 00:46:34 36° WSW 00:51:14 10° S visible
07 Mar 6.5 01:26:13 10° W 01:27:41 11° WSW 01:29:08 10° WSW visible
08 Mar 5.6 00:24:01 10° NW 00:28:27 28° WSW 00:32:48 10° S visible
